Wind_Speed
27 28 29 30 29 29 29 30 28 27 25 24 25 25 22 20 19 17 16 14 13 13 13 12 11 11 11 11 11 11 11 12 12 12 12 12 11 10 10 9 8 7 6
25 26 27 28 29 29 27 29 28 28 28 26 26 27 26 24 21 20 19 17 16 15 15 13 13 12 12 11 11 11 11 12 12 12 12 12 11 10 9 9 8 7 6
23 25 25 26 28 29 29 29 29 28 28 27 26 27 28 27 24 22 21 20 19 18 17 16 15 14 13 13 12 12 12 13 13 13 12 12 11 10 9 9 8 8 6
20 22 24 25 27 28 28 28 29 29 29 28 27 27 28 29 27 25 23 22 21 20 19 18 17 16 15 14 14 13 13 14 13 13 13 13 12 11 10 9 9 8 7
17 19 21 23 25 27 28 28 28 29 29 29 28 27 28 29 28 27 26 25 24 23 22 21 20 18 17 16 16 15 15 14 14 14 13 13 13 11 10 10 10 8 7
13 15 17 20 22 24 26 26 27 29 29 29 29 28 29 28 26 27 28 28 27 26 26 24 23 21 20 19 18 18 17 16 16 15 15 14 14 12 11 11 11 9 8
8 10 13 16 19 21 23 24 26 27 29 29 29 30 29 29 27 27 28 30 30 30 29 28 26 25 24 23 22 21 20 19 18 17 16 16 15 14 13 13 12 11 10
6 7 9 12 15 18 20 22 24 25 27 28 29 29 28 29 29 30 28 29 31 31 32 32 30 29 27 26 25 24 23 22 21 20 19 18 17 16 15 15 14 13 12
6 6 7 9 11 13 16 19 21 24 25 26 27 28 28 28 30 30 31 30 30 31 32 33 34 32 31 30 29 28 26 25 24 23 21 20 19 18 17 17 16 15 14
9 7 6 6 8 10 12 16 18 21 23 25 27 28 29 29 30 31 31 33 33 32 32 33 35 36 35 34 33 32 30 29 28 27 25 24 22 21 20 19 19 18 17
11 10 8 6 6 8 9 12 16 18 21 24 26 28 29 30 31 32 32 34 35 34 34 35 36 36 37 38 37 36 35 33 32 31 29 28 27 25 24 23 22 21 20
14 12 10 8 7 7 8 9 12 15 18 20 23 25 28 30 31 33 34 35 36 37 37 37 37 38 38 39 39 39 39 38 37 36 34 33 31 29 28 26 25 24 23
16 15 13 11 9 8 8 8 10 12 15 18 20 23 26 28 30 33 34 37 37 38 39 39 40 41 41 40 41 40 41 41 41 40 38 37 36 34 32 30 28 27 26
18 17 15 13 12 10 9 8 9 11 13 16 18 21 24 26 29 32 34 36 38 39 39 40 41 42 42 43 44 44 43 43 43 42 41 41 40 38 36 34 32 30 29
19 18 17 16 15 13 11 10 9 10 11 13 16 19 22 24 27 30 32 35 38 40 41 42 43 43 45 45 46 45 45 45 44 43 43 43 42 41 39 38 36 34 32
19 18 18 17 16 15 14 13 11 11 11 12 15 17 20 23 26 28 31 33 36 39 40 42 44 45 45 46 47 47 47 46 45 44 44 44 44 44 43 42 39 37 36
19 18 18 18 17 17 16 15 14 13 13 13 14 16 18 21 24 27 30 32 34 37 39 41 44 45 46 47 47 47 47 48 48 46 45 45 44 44 44 44 42 40 39
19 19 18 18 18 18 18 17 16 15 15 13 13 15 17 19 22 24 27 30 33 35 37 40 42 45 46 48 48 48 47 48 48 47 46 45 44 43 44 44 44 43 42
19 19 19 19 19 19 19 19 19 17 16 15 15 15 16 18 20 22 24 28 31 34 36 38 41 43 45 46 47 48 48 48 48 49 48 47 45 44 44 45 45 44 44
19 19 19 19 19 20 20 20 20 18 18 17 16 16 17 17 18 20 22 24 27 30 33 36 39 42 44 46 46 46 48 48 48 50 49 48 47 46 46 45 45 45 45
19 19 19 19 19 20 20 21 20 19 18 18 18 18 18 17 18 18 19 21 23 26 29 32 36 39 42 44 45 45 46 47 47 48 48 48 48 47 47 46 45 45 45
19 19 19 19 19 20 20 20 20 19 19 19 20 19 18 18 18 17 17 17 19 22 24 28 31 34 37 40 42 44 45 46 46 47 48 49 49 48 47 47 46 45 46
19 19 19 19 19 19 20 20 20 19 19 20 20 20 19 18 18 17 16 16 16 18 20 23 26 29 32 35 38 40 42 44 45 45 46 47 48 48 47 46 46 45 45
20 20 20 20 20 19 20 20 20 20 19 19 20 20 19 18 17 16 16 15 14 15 16 19 22 25 28 31 34 36 39 41 42 43 44 44 46 47 47 46 46 46 45
21 21 21 21 20 20 20 20 20 20 20 20 20 20 19 18 18 17 16 15 14 14 15 16 18 21 24 27 30 32 35 37 38 40 41 42 43 45 47 47 45 45 45
22 22 22 21 21 21 21 20 20 20 20 20 20 19 19 19 18 17 16 15 15 14 14 16 17 19 22 24 26 29 32 34 36 37 39 41 41 43 44 45 45 45 45
Wind_Direction
249 247 246 246 246 245 244 242 243 243 242 238 234 231 230 228 228 226 224 222 219 216 213 208 204 203 200 198 196 196 196 195 196 196 192 190 191 195 198 204 206 208 213
249 247 244 242 241 241 240 240 242 242 240 238 235 230 228 226 226 227 224 221 219 217 215 211 208 206 203 201 199 200 200 196 192 192 191 191 192 194 200 206 208 208 212
250 247 244 241 239 238 238 239 240 239 237 239 237 233 230 228 227 227 225 222 220 217 215 213 212 209 207 205 203 201 200 196 195 197 196 195 196 197 198 199 202 207 211
253 249 245 241 239 237 237 237 236 236 237 238 238 238 234 231 228 225 225 224 222 219 216 214 214 212 210 209 208 205 203 201 200 200 201 202 202 201 201 202 204 209 212
258 251 246 243 239 237 236 234 234 234 235 236 237 239 236 232 230 227 225 224 224 222 219 218 217 216 213 212 212 211 208 206 205 205 206 207 206 207 209 208 207 210 214
263 254 247 243 240 239 236 233 233 232 234 235 237 238 236 233 232 230 227 226 226 224 221 221 220 219 217 216 215 215 214 212 211 211 212 212 213 215 217 213 213 215 220
275 261 251 246 242 240 238 235 233 232 232 233 234 235 235 234 235 230 230 228 227 227 225 223 224 223 222 221 219 219 218 216 215 216 217 218 219 221 221 219 220 223 228
298 275 261 253 245 241 241 239 236 234 233 233 233 233 233 233 233 229 229 228 227 227 227 226 227 226 225 224 223 222 221 220 220 220 220 221 223 225 226 225 226 229 233
333 304 277 264 255 247 242 239 238 236 235 234 234 233 233 233 230 229 228 227 227 227 228 229 228 227 227 227 226 225 224 224 224 224 225 226 227 229 230 231 233 235 238
4 348 320 287 268 256 248 242 240 238 236 236 235 235 235 235 233 231 230 228 228 229 229 230 229 229 229 229 228 228 227 227 228 228 229 229 230 232 234 236 238 240 243
11 5 354 331 296 274 262 251 245 242 240 239 237 236 236 236 236 234 233 231 231 230 230 229 229 229 230 231 231 230 230 230 231 231 232 232 233 235 236 238 240 242 245
17 11 3 351 332 305 283 268 256 249 245 243 241 240 239 238 237 236 235 235 234 232 231 229 229 230 231 231 232 232 233 233 233 234 234 234 235 236 238 239 241 244 246
19 16 11 3 349 329 307 284 270 260 253 249 247 245 244 242 241 238 237 237 236 235 234 232 231 232 232 231 232 233 233 234 235 235 235 235 236 238 239 240 242 244 247
17 15 12 8 2 350 334 313 292 276 265 258 253 251 249 247 245 242 240 237 237 237 236 235 234 233 233 233 233 234 234 235 235 235 237 238 238 238 239 241 243 244 247
13 13 11 8 4 357 348 335 318 298 279 269 263 258 256 253 250 247 244 241 239 238 237 236 236 235 235 234 233 234 235 236 236 236 237 238 238 239 240 241 243 244 247
9 9 9 8 5 0 354 346 334 318 301 286 274 269 266 263 258 254 250 247 243 241 239 238 238 237 236 236 235 234 234 235 235 236 237 238 239 240 241 242 243 245 247
5 5 5 4 3 1 357 352 344 332 319 304 290 281 275 270 264 259 255 252 247 244 241 239 239 237 236 235 235 235 235 235 234 235 236 237 240 241 241 241 243 245 246
2 2 2 2 1 360 358 354 349 341 331 320 307 297 289 281 273 267 261 256 252 247 243 240 240 239 238 237 236 236 235 235 234 234 235 237 239 241 242 242 243 245 245
357 358 358 359 358 357 356 354 351 346 339 330 320 312 305 295 284 275 267 261 256 252 247 243 241 240 240 239 238 237 236 235 234 235 236 237 238 240 241 242 243 244 245
355 355 356 356 355 355 354 353 351 350 347 341 332 324 317 308 298 287 277 268 262 257 251 247 244 242 241 241 239 238 238 236 235 235 236 236 237 239 240 240 241 242 243
352 352 352 352 352 353 353 354 352 351 349 346 341 334 328 320 312 301 291 278 268 262 256 251 247 245 243 242 241 240 239 238 237 236 236 237 237 238 239 240 241 241 242
347 348 349 349 350 350 350 351 351 351 349 347 345 341 334 328 322 314 304 291 278 267 260 254 250 248 246 244 243 242 240 239 238 237 237 237 238 238 239 239 240 241 241
341 342 344 345 345 345 346 347 348 347 347 346 345 344 340 335 330 324 315 305 292 278 267 259 254 251 249 247 245 244 242 240 239 239 238 237 238 239 239 240 240 240 240
334 335 336 337 338 340 341 342 343 343 343 343 343 343 341 338 334 328 322 314 303 289 277 266 258 253 250 248 246 244 242 241 240 240 240 239 239 239 239 240 240 239 240
328 328 329 329 331 332 334 336 337 339 339 339 339 340 339 338 336 332 326 319 310 298 286 275 265 257 252 250 248 245 243 243 240 240 241 240 239 239 239 238 239 239 239
322 323 323 324 325 327 328 330 331 333 334 335 336 336 336 336 335 332 328 323 316 307 294 282 272 264 257 254 251 246 243 241 241 241 242 243 241 240 239 238 238 239 240
Height
5814 5816 5819 5821 5824 5827 5830 5833 5835 5838 5841 5843 5846 5849 5852 5854 5856 5857 5859 5861 5862 5864 5866 5867 5869 5871 5872 5874 5875 5877 5878 5880 5881 5882 5884 5885 5887 5888 5890 5891 5892 5894 5894
5807 5809 5812 5814 5817 5820 5823 5826 5829 5832 5835 5838 5841 5844 5847 5850 5852 5854 5856 5858 5860 5862 5864 5866 5868 5870 5871 5873 5874 5876 5877 5879 5880 5882 5883 5885 5886 5888 5889 5890 5892 5893 5894
5801 5803 5805 5807 5810 5813 5816 5820 5823 5826 5829 5833 5836 5839 5842 5845 5848 5849 5852 5854 5856 5859 5861 5864 5866 5868 5870 5872 5873 5875 5876 5878 5880 5881 5883 5884 5886 5887 5888 5889 5891 5892 5893
5796 5797 5799 5801 5804 5807 5810 5813 5816 5820 5823 5827 5830 5833 5836 5839 5843 5845 5847 5850 5853 5856 5859 5861 5864 5866 5868 5870 5872 5874 5875 5877 5879 5880 5882 5883 5885 5886 5887 5889 5890 5891 5892
5791 5792 5794 5796 5798 5801 5804 5807 5810 5813 5817 5820 5824 5827 5830 5833 5837 5840 5843 5846 5849 5852 5855 5858 5861 5863 5865 5868 5870 5872 5874 5876 5877 5879 5881 5882 5884 5885 5886 5888 5889 5890 5891
5787 5788 5789 5791 5793 5795 5798 5801 5804 5807 5811 5814 5818 5821 5824 5827 5831 5834 5837 5841 5844 5847 5851 5854 5857 5860 5862 5865 5867 5870 5872 5874 5876 5877 5879 5881 5882 5884 5885 5886 5888 5889 5890
5784 5785 5786 5787 5788 5790 5792 5795 5798 5801 5804 5808 5812 5815 5818 5821 5825 5828 5832 5835 5839 5842 5846 5849 5853 5856 5858 5861 5864 5867 5869 5871 5873 5875 5877 5879 5880 5882 5883 5884 5886 5887 5888
5783 5782 5783 5783 5784 5786 5788 5790 5793 5795 5798 5802 5805 5809 5812 5816 5818 5822 5825 5829 5833 5836 5840 5843 5847 5850 5854 5857 5860 5863 5865 5868 5870 5872 5874 5876 5878 5879 5881 5882 5884 5885 5886
5781 5781 5780 5780 5781 5782 5784 5786 5788 5790 5793 5796 5799 5802 5806 5809 5812 5816 5819 5822 5826 5830 5833 5837 5841 5844 5848 5851 5855 5858 5861 5863 5866 5868 5870 5872 5874 5876 5878 5879 5881 5882 5883
5781 5779 5779 5778 5778 5779 5780 5782 5784 5785 5788 5790 5793 5796 5799 5802 5805 5808 5812 5815 5819 5823 5827 5830 5833 5837 5841 5845 5848 5852 5855 5858 5861 5863 5866 5868 5870 5872 5874 5875 5877 5879 5880
5781 5779 5778 5777 5776 5776 5777 5778 5779 5781 5783 5785 5787 5790 5792 5795 5798 5801 5804 5808 5812 5815 5819 5823 5826 5829 5833 5837 5841 5845 5848 5852 5855 5858 5860 5863 5865 5867 5869 5871 5873 5874 5876
5781 5779 5777 5776 5775 5774 5774 5774 5775 5776 5778 5780 5782 5784 5786 5789 5791 5794 5797 5800 5804 5807 5811 5815 5818 5822 5825 5829 5833 5837 5840 5844 5848 5851 5854 5857 5859 5861 5864 5866 5868 5869 5871
5782 5779 5777 5775 5774 5772 5771 5771 5771 5772 5773 5774 5776 5778 5779 5782 5784 5787 5790 5792 5795 5798 5802 5806 5810 5813 5817 5820 5824 5828 5831 5835 5839 5843 5846 5849 5852 5855 5857 5860 5862 5864 5865
5783 5780 5777 5775 5773 5771 5769 5768 5768 5768 5768 5769 5770 5771 5773 5774 5776 5778 5781 5784 5787 5790 5793 5797 5800 5804 5807 5811 5815 5818 5822 5826 5830 5834 5837 5841 5844 5847 5850 5853 5855 5857 5859
5784 5780 5777 5774 5772 5769 5767 5766 5765 5764 5764 5764 5765 5765 5766 5767 5768 5770 5772 5775 5778 5781 5784 5787 5790 5793 5797 5801 5805 5809 5813 5817 5820 5824 5828 5831 5835 5839 5842 5845 5848 5850 5852
5784 5781 5778 5774 5771 5768 5766 5764 5762 5761 5760 5760 5759 5759 5759 5759 5760 5761 5763 5765 5767 5771 5774 5777 5779 5782 5786 5791 5794 5798 5803 5806 5810 5814 5818 5822 5826 5830 5833 5837 5839 5842 5845
5784 5781 5778 5774 5771 5768 5765 5762 5760 5758 5756 5755 5754 5753 5753 5752 5752 5753 5754 5755 5757 5760 5763 5766 5768 5771 5775 5779 5783 5787 5791 5795 5799 5804 5808 5811 5815 5819 5823 5827 5831 5834 5837
5784 5781 5777 5774 5770 5767 5764 5760 5757 5754 5752 5750 5749 5747 5746 5745 5744 5744 5744 5745 5746 5749 5752 5755 5757 5760 5763 5767 5771 5776 5780 5784 5788 5793 5797 5801 5805 5809 5813 5817 5821 5824 5827
5784 5780 5777 5773 5769 5766 5762 5759 5755 5751 5748 5746 5744 5742 5740 5738 5736 5736 5735 5735 5736 5738 5740 5744 5746 5748 5752 5755 5759 5764 5768 5773 5777 5781 5785 5790 5794 5798 5802 5806 5810 5814 5817
5783 5779 5776 5772 5768 5765 5761 5756 5752 5748 5745 5742 5740 5737 5735 5732 5730 5728 5727 5726 5727 5727 5729 5732 5735 5737 5740 5743 5748 5752 5756 5760 5765 5769 5774 5778 5783 5787 5791 5795 5799 5803 5807
5782 5778 5775 5771 5767 5763 5759 5755 5750 5746 5743 5740 5736 5733 5730 5727 5724 5722 5720 5718 5718 5718 5719 5721 5724 5726 5729 5732 5736 5740 5744 5748 5753 5757 5762 5767 5771 5775 5779 5784 5788 5792 5796
5780 5777 5773 5769 5766 5762 5758 5753 5749 5745 5741 5737 5734 5730 5727 5723 5720 5717 5715 5712 5711 5711 5711 5712 5714 5716 5718 5721 5724 5728 5732 5737 5743 5748 5750 5755 5759 5764 5768 5773 5776 5780 5784
5778 5775 5771 5767 5764 5760 5756 5752 5748 5744 5740 5736 5732 5728 5724 5720 5717 5713 5711 5709 5707 5705 5705 5705 5706 5707 5709 5712 5715 5719 5722 5725 5731 5734 5738 5743 5747 5752 5757 5761 5765 5769 5773
5775 5772 5768 5765 5761 5758 5754 5750 5746 5742 5738 5734 5730 5726 5722 5718 5714 5711 5708 5705 5703 5701 5700 5699 5700 5700 5701 5703 5706 5709 5711 5716 5720 5724 5728 5732 5736 5741 5745 5749 5753 5757 5762
5772 5769 5765 5762 5759 5755 5752 5748 5744 5740 5736 5732 5728 5724 5720 5716 5712 5709 5706 5703 5700 5698 5696 5695 5695 5694 5695 5696 5698 5700 5703 5706 5711 5714 5717 5722 5725 5729 5733 5737 5742 5746 5750
5768 5765 5762 5758 5755 5752 5748 5745 5741 5737 5734 5730 5726 5722 5718 5714 5711 5707 5704 5701 5698 5695 5693 5691 5690 5690 5690 5690 5691 5692 5694 5697 5701 5705 5708 5711 5714 5717 5722 5726 5730 5734 5738